Home   Weather   Gambier Islands   Past weeks

Flag for French Polynesia Past Weather in Gambier Islands, French Polynesia — Yesterday and Last 2 Weeks

Now
81 °F

Overcast.


Feels Like: 86 °F
Forecast: 76 / 82 °F
Wind: 7 mph from Northeast

Location: Rikitea

Current Time: Jan 18, 2017 at 3:37:51 pm

Latest Report: Jan 18, 2017 at 1:00 pm


Visibility: 25 mi

Pressure: 29.96 "Hg

Humidity: 77%

Dew Point: 73 °F

Location of Gambier IslandsLocation

Past Weather in Gambier Islands — Graph

°F

Gambier Islands Temperature Yesterday

Maximum temperature yesterday: 81 °F (at 12:00 pm)
Minimum temperature yesterday: 76 °F (at 6:00 am)
Average temperature yesterday: 78 °F

High & Low Weather Summary for the Past Weeks

 TemperatureHumidityPressure
High84 °F (Jan 15, 2:00 pm)93% (Jan 8, 8:00 am)30.03 "Hg (Jan 8, 8:00 am)
Low72 °F (Jan 8, 8:00 am)56% (Jan 3, 1:00 pm)29.79 "Hg (Jan 3, 4:00 pm)
Average78 °F78%29.91 "Hg
* Reported Jan 3 1:00 pm — Jan 18 1:00 pm, Gambier Islands, Weather by CustomWeather, © 2017

Note: Actual official high and low records may vary slightly from our data, if they occured in-between our weather recording intervals... More about our weather records

Advertising

Gambier Islands Weather History for the Previous 24 Hours

Scroll right to see more
 ConditionsComfort  
Time TempWeatherWind HumidityBarometerVisibility
1:00 pm
Wed, Jan 18
81 °FOvercast.7 mph77%29.96 "Hg25 mi
12:00 pm81 °FOvercast.9 mph76%29.96 "Hg25 mi
10:00 am81 °FOvercast.9 mph73%29.96 "Hg25 mi
9:00 am81 °FOvercast.9 mph75%29.96 "Hg25 mi
8:00 am81 °FOvercast.9 mph75%29.95 "Hg25 mi
7:00 am79 °FPartly sunny.9 mph78%29.93 "Hg25 mi
6:00 am78 °FScattered clouds.9 mph79%29.90 "Hg25 mi
5:00 am77 °FWarm.8 mph79%29.88 "HgN/A
4:00 am77 °FWarm.9 mph77%29.86 "HgN/A
3:00 am78 °FWarm.8 mph81%29.87 "HgN/A
2:00 am78 °FWarm.7 mph77%29.88 "HgN/A
12:00 am77 °FMild.8 mph80%29.91 "HgN/A
9:00 pm
Tue, Jan 17
77 °FWarm.5 mph72%29.94 "HgN/A
8:00 pm77 °FWarm.5 mph73%29.94 "HgN/A
7:00 pm77 °FWarm.3 mph70%29.92 "HgN/A
6:00 pm78 °FWarm.3 mph71%29.90 "HgN/A
5:00 pm78 °FOvercast.2 mph73%29.88 "Hg19 mi
4:00 pm79 °FOvercast.2 mph70%29.87 "Hg19 mi
3:00 pm79 °FOvercast.3 mph70%29.87 "Hg19 mi
Weather by CustomWeather, © 2017

See weather overviewHow to use our weather pages